Precipitable_Water
0.35 0.41 0.41 0.43 0.41 0.43 0.46 0.46 0.47 0.45 0.51 0.46 0.37 0.44 0.53 0.47 0.38 0.36 0.58 0.62 0.61 0.69 0.78 0.88 0.93 0.99 1.02 1.06 1.12 1.18 1.23 1.22 1.19 1.17 1.14 1.14 1.16 1.19 1.21 1.25 1.28 1.28 1.27 1.28 1.30 1.37 1.47 1.55 1.58 1.61 1.66 1.70 1.73 1.76 1.83 1.78 1.68 1.62 1.67 1.70 1.74 1.81 1.87 1.89 1.92 1.96 2.00 2.03 2.02 1.99 1.99 2.00 2.02 2.05 2.08 2.10 2.08 2.10 2.16 2.16 2.15 2.13 2.14 2.14 2.10 2.07 2.09
0.36 0.40 0.40 0.41 0.35 0.38 0.38 0.41 0.45 0.49 0.48 0.49 0.52 0.53 0.57 0.56 0.54 0.62 0.64 0.64 0.65 0.76 0.84 0.89 0.96 1.07 1.10 1.13 1.22 1.25 1.21 1.18 1.17 1.14 1.10 1.09 1.12 1.13 1.17 1.23 1.29 1.29 1.30 1.32 1.33 1.34 1.39 1.48 1.56 1.62 1.66 1.69 1.71 1.71 1.75 1.71 1.71 1.73 1.76 1.75 1.74 1.78 1.82 1.87 1.93 1.97 1.97 1.97 1.96 1.99 1.98 1.96 1.99 2.04 2.06 2.08 2.09 2.10 2.13 2.13 2.10 2.07 2.06 2.06 2.05 2.03 2.01
0.32 0.37 0.39 0.39 0.35 0.33 0.31 0.41 0.44 0.47 0.50 0.51 0.54 0.52 0.54 0.59 0.63 0.67 0.67 0.67 0.68 0.85 0.95 0.99 1.03 1.03 1.14 1.15 1.14 1.14 1.24 1.25 1.21 1.16 1.12 1.10 1.11 1.13 1.16 1.21 1.26 1.30 1.31 1.33 1.36 1.35 1.34 1.39 1.47 1.56 1.63 1.68 1.71 1.72 1.75 1.73 1.72 1.76 1.77 1.74 1.77 1.81 1.81 1.86 1.92 1.94 1.90 1.86 1.88 1.90 1.96 1.96 1.94 1.96 2.06 2.13 2.15 2.13 2.09 2.05 2.01 2.00 2.01 2.00 1.99 1.99 2.01
0.23 0.34 0.36 0.37 0.40 0.39 0.36 0.37 0.41 0.43 0.44 0.42 0.52 0.51 0.59 0.52 0.48 0.54 0.57 0.55 0.61 0.79 0.92 0.96 0.98 1.01 1.08 1.07 1.14 1.10 1.15 1.16 1.15 1.15 1.13 1.12 1.12 1.13 1.16 1.19 1.22 1.25 1.28 1.31 1.31 1.33 1.34 1.37 1.43 1.48 1.53 1.60 1.65 1.69 1.73 1.68 1.71 1.74 1.72 1.71 1.76 1.75 1.73 1.82 1.88 1.87 1.84 1.81 1.82 1.87 1.92 1.88 1.88 1.91 1.97 2.03 2.04 2.03 1.99 1.96 1.96 1.97 1.93 1.94 1.99 2.03 2.04
0.22 0.30 0.36 0.37 0.36 0.32 0.25 0.33 0.43 0.50 0.52 0.56 0.59 0.62 0.64 0.62 0.63 0.50 0.45 0.51 0.69 0.77 0.85 0.81 0.84 0.89 0.95 1.08 1.14 1.16 1.15 1.15 1.13 1.13 1.12 1.16 1.15 1.16 1.18 1.17 1.19 1.22 1.25 1.31 1.35 1.36 1.37 1.38 1.40 1.46 1.52 1.54 1.57 1.66 1.67 1.68 1.73 1.69 1.67 1.72 1.79 1.76 1.73 1.80 1.83 1.84 1.79 1.76 1.79 1.85 1.91 1.92 1.91 1.91 1.92 1.95 1.95 1.94 1.93 1.98 2.01 1.97 1.95 1.98 2.01 2.05 2.04
0.23 0.29 0.32 0.35 0.28 0.18 0.26 0.53 0.61 0.57 0.48 0.52 0.50 0.53 0.60 0.66 0.68 0.64 0.71 0.73 0.79 0.80 0.80 0.77 0.77 0.80 0.85 0.94 1.10 1.17 1.11 1.10 1.12 1.14 1.17 1.19 1.17 1.17 1.21 1.21 1.20 1.22 1.26 1.30 1.37 1.42 1.44 1.45 1.47 1.50 1.54 1.54 1.61 1.69 1.69 1.67 1.64 1.65 1.64 1.74 1.74 1.70 1.63 1.72 1.80 1.82 1.79 1.77 1.79 1.81 1.92 1.96 1.96 1.95 1.95 1.94 1.95 1.96 1.97 1.98 1.96 1.98 2.02 2.04 2.06 2.05 2.03
0.22 0.29 0.31 0.24 0.17 0.25 0.52 0.62 0.63 0.63 0.62 0.61 0.59 0.61 0.63 0.64 0.69 0.70 0.69 0.72 0.74 0.77 0.79 0.82 0.84 0.86 0.90 0.97 1.00 1.08 1.11 1.07 1.08 1.14 1.19 1.22 1.21 1.17 1.15 1.17 1.18 1.21 1.23 1.24 1.30 1.37 1.43 1.47 1.49 1.50 1.52 1.56 1.61 1.67 1.69 1.65 1.64 1.60 1.63 1.67 1.72 1.71 1.65 1.65 1.71 1.74 1.74 1.75 1.75 1.79 1.84 1.86 1.89 1.95 1.98 2.00 1.99 2.00 1.99 1.95 1.94 1.94 1.99 2.02 2.05 2.06 2.06
0.32 0.27 0.27 0.16 0.18 0.49 0.58 0.62 0.62 0.66 0.68 0.62 0.62 0.55 0.62 0.65 0.65 0.66 0.62 0.67 0.71 0.73 0.73 0.76 0.81 0.83 0.86 0.90 1.00 1.06 1.07 1.06 1.06 1.07 1.07 1.13 1.18 1.18 1.21 1.23 1.23 1.21 1.22 1.21 1.24 1.32 1.45 1.48 1.47 1.50 1.52 1.57 1.58 1.63 1.71 1.68 1.65 1.61 1.59 1.60 1.62 1.63 1.58 1.59 1.63 1.68 1.69 1.73 1.75 1.73 1.80 1.89 1.94 1.88 1.91 1.94 1.95 2.00 1.97 1.97 2.00 2.03 2.05 2.08 2.04 2.04 2.08
0.25 0.29 0.28 0.29 0.46 0.45 0.52 0.53 0.55 0.58 0.51 0.53 0.50 0.40 0.51 0.64 0.67 0.65 0.64 0.67 0.69 0.70 0.71 0.73 0.76 0.80 0.80 0.76 0.80 0.99 1.03 1.04 1.11 1.13 1.10 1.15 1.15 1.17 1.24 1.30 1.29 1.28 1.29 1.27 1.27 1.32 1.39 1.45 1.46 1.48 1.56 1.61 1.61 1.64 1.66 1.68 1.67 1.62 1.58 1.55 1.55 1.54 1.51 1.53 1.57 1.61 1.64 1.64 1.68 1.68 1.71 1.68 1.68 1.62 1.71 1.87 1.95 2.03 1.98 1.98 2.00 2.02 2.04 2.05 2.07 2.07 2.04
0.38 0.30 0.28 0.31 0.30 0.24 0.40 0.54 0.62 0.68 0.68 0.66 0.65 0.54 0.47 0.65 0.68 0.70 0.68 0.66 0.68 0.68 0.70 0.70 0.71 0.73 0.62 0.55 0.63 0.83 0.94 1.00 1.02 1.08 1.12 1.16 1.16 1.17 1.21 1.27 1.29 1.27 1.28 1.32 1.32 1.29 1.31 1.40 1.47 1.53 1.59 1.62 1.63 1.61 1.63 1.68 1.67 1.63 1.60 1.55 1.56 1.56 1.54 1.52 1.51 1.51 1.53 1.55 1.54 1.55 1.54 1.51 1.45 1.46 1.62 1.85 1.87 1.95 1.91 1.94 1.91 1.97 2.06 2.02 2.06 2.02 2.02
0.32 0.29 0.24 0.24 0.22 0.29 0.48 0.53 0.61 0.67 0.69 0.66 0.66 0.48 0.38 0.64 0.70 0.72 0.71 0.68 0.69 0.69 0.68 0.69 0.71 0.61 0.48 0.49 0.59 0.74 0.84 0.90 0.97 0.98 1.03 1.08 1.13 1.14 1.16 1.20 1.20 1.22 1.25 1.29 1.31 1.29 1.27 1.34 1.48 1.55 1.58 1.60 1.60 1.58 1.61 1.66 1.64 1.65 1.64 1.63 1.61 1.59 1.58 1.56 1.50 1.50 1.52 1.50 1.49 1.47 1.46 1.43 1.37 1.34 1.41 1.55 1.74 1.87 1.86 1.86 1.87 1.92 1.92 1.91 1.89 1.90 1.91
0.30 0.29 0.25 0.25 0.35 0.37 0.50 0.58 0.61 0.64 0.67 0.66 0.54 0.28 0.33 0.62 0.69 0.72 0.71 0.67 0.67 0.68 0.70 0.71 0.67 0.60 0.49 0.49 0.58 0.74 0.80 0.87 0.92 0.95 0.95 0.99 1.04 1.08 1.11 1.18 1.23 1.25 1.27 1.27 1.26 1.24 1.22 1.33 1.51 1.56 1.58 1.56 1.54 1.54 1.57 1.59 1.56 1.54 1.55 1.62 1.66 1.65 1.61 1.56 1.50 1.50 1.52 1.52 1.52 1.48 1.45 1.43 1.39 1.34 1.37 1.42 1.50 1.68 1.82 1.73 1.71 1.77 1.77 1.75 1.70 1.69 1.70
0.30 0.29 0.29 0.34 0.38 0.55 0.61 0.60 0.63 0.65 0.67 0.57 0.34 0.27 0.44 0.66 0.70 0.72 0.71 0.69 0.70 0.71 0.68 0.69 0.59 0.65 0.70 0.71 0.74 0.78 0.81 0.80 0.84 0.92 0.96 0.98 1.02 1.03 1.06 1.09 1.19 1.18 1.22 1.24 1.24 1.24 1.26 1.35 1.48 1.56 1.58 1.52 1.48 1.50 1.53 1.54 1.55 1.60 1.63 1.70 1.68 1.64 1.58 1.54 1.52 1.52 1.54 1.54 1.52 1.53 1.50 1.43 1.40 1.37 1.35 1.32 1.36 1.44 1.47 1.48 1.50 1.50 1.51 1.50 1.44 1.40 1.41
0.29 0.32 0.27 0.29 0.37 0.52 0.64 0.66 0.65 0.69 0.53 0.34 0.32 0.56 0.73 0.71 0.68 0.72 0.72 0.69 0.72 0.73 0.71 0.70 0.70 0.72 0.77 0.79 0.79 0.78 0.78 0.79 0.81 0.85 0.89 0.92 0.96 1.03 1.08 1.10 1.12 1.12 1.15 1.20 1.23 1.25 1.30 1.34 1.45 1.55 1.57 1.52 1.49 1.47 1.46 1.48 1.59 1.66 1.64 1.63 1.66 1.62 1.57 1.54 1.56 1.57 1.54 1.53 1.55 1.57 1.53 1.45 1.39 1.36 1.38 1.37 1.34 1.35 1.35 1.32 1.27 1.27 1.27 1.26 1.24 1.24 1.26
0.37 0.35 0.30 0.27 0.22 0.51 0.65 0.64 0.60 0.66 0.43 0.47 0.63 0.68 0.72 0.75 0.72 0.72 0.73 0.74 0.75 0.77 0.72 0.76 0.76 0.77 0.78 0.78 0.78 0.78 0.78 0.77 0.78 0.81 0.84 0.85 0.87 0.91 0.97 1.01 1.08 1.09 1.08 1.14 1.19 1.23 1.30 1.34 1.44 1.54 1.58 1.54 1.53 1.50 1.42 1.46 1.58 1.65 1.66 1.64 1.71 1.65 1.58 1.53 1.53 1.58 1.58 1.51 1.49 1.54 1.50 1.46 1.39 1.32 1.33 1.32 1.32 1.33 1.30 1.26 1.21 1.17 1.15 1.15 1.13 1.11 1.13
0.29 0.30 0.26 0.28 0.43 0.57 0.70 0.63 0.47 0.61 0.64 0.71 0.74 0.71 0.66 0.74 0.75 0.74 0.74 0.77 0.79 0.80 0.78 0.76 0.77 0.80 0.79 0.79 0.81 0.80 0.79 0.79 0.79 0.82 0.84 0.86 0.87 0.89 0.94 1.00 1.04 1.07 1.06 1.10 1.18 1.25 1.29 1.35 1.41 1.47 1.51 1.52 1.54 1.51 1.47 1.56 1.60 1.64 1.65 1.58 1.51 1.46 1.47 1.50 1.50 1.54 1.56 1.50 1.47 1.48 1.44 1.40 1.35 1.28 1.25 1.26 1.26 1.27 1.27 1.23 1.17 1.13 1.12 1.11 1.08 1.05 1.04
0.40 0.36 0.41 0.54 0.64 0.67 0.72 0.72 0.70 0.73 0.77 0.79 0.79 0.76 0.73 0.71 0.74 0.81 0.76 0.75 0.79 0.82 0.81 0.80 0.81 0.79 0.82 0.82 0.84 0.81 0.80 0.81 0.80 0.79 0.81 0.83 0.84 0.85 0.88 0.93 1.01 1.04 1.04 1.05 1.13 1.21 1.29 1.33 1.38 1.43 1.46 1.48 1.52 1.51 1.57 1.62 1.57 1.58 1.64 1.60 1.49 1.42 1.42 1.45 1.46 1.50 1.51 1.45 1.40 1.36 1.32 1.28 1.22 1.21 1.21 1.23 1.20 1.24 1.23 1.20 1.17 1.12 1.10 1.09 1.06 1.05 1.04
0.58 0.60 0.61 0.67 0.69 0.71 0.72 0.78 0.80 0.76 0.77 0.81 0.81 0.78 0.74 0.78 0.80 0.81 0.77 0.79 0.81 0.82 0.84 0.80 0.80 0.82 0.84 0.84 0.84 0.85 0.85 0.84 0.84 0.85 0.84 0.84 0.85 0.85 0.88 0.91 0.97 1.01 1.03 1.06 1.10 1.15 1.25 1.33 1.34 1.41 1.43 1.47 1.47 1.54 1.63 1.61 1.58 1.57 1.61 1.60 1.51 1.44 1.40 1.40 1.43 1.44 1.36 1.31 1.28 1.25 1.23 1.25 1.24 1.25 1.23 1.23 1.20 1.21 1.20 1.17 1.15 1.12 1.09 1.08 1.07 1.06 1.04
0.46 0.40 0.60 0.60 0.64 0.70 0.73 0.74 0.80 0.82 0.82 0.81 0.82 0.80 0.80 0.80 0.82 0.82 0.85 0.85 0.85 0.86 0.85 0.83 0.82 0.84 0.88 0.86 0.86 0.88 0.88 0.87 0.87 0.87 0.85 0.84 0.84 0.83 0.83 0.89 0.94 0.97 0.99 1.01 1.06 1.12 1.18 1.32 1.35 1.39 1.43 1.46 1.52 1.57 1.61 1.63 1.58 1.56 1.56 1.54 1.52 1.48 1.41 1.40 1.43 1.42 1.32 1.25 1.20 1.18 1.19 1.23 1.26 1.28 1.29 1.27 1.25 1.24 1.23 1.19 1.17 1.16 1.13 1.08 1.04 1.02 1.00
0.45 0.46 0.59 0.65 0.71 0.73 0.75 0.76 0.74 0.74 0.78 0.81 0.82 0.83 0.84 0.85 0.86 0.87 0.88 0.90 0.87 0.91 0.87 0.88 0.86 0.85 0.89 0.88 0.88 0.89 0.90 0.90 0.91 0.91 0.90 0.87 0.85 0.86 0.88 0.90 0.94 0.96 0.97 0.99 1.04 1.10 1.15 1.30 1.36 1.38 1.39 1.40 1.49 1.56 1.60 1.64 1.59 1.54 1.54 1.52 1.51 1.50 1.46 1.44 1.47 1.47 1.39 1.32 1.20 1.13 1.18 1.21 1.20 1.22 1.26 1.28 1.25 1.24 1.24 1.23 1.18 1.14 1.10 1.07 1.03 1.00 0.98
0.53 0.60 0.64 0.68 0.68 0.68 0.72 0.77 0.81 0.82 0.80 0.78 0.78 0.83 0.84 0.86 0.85 0.86 0.90 0.93 0.91 0.92 0.91 0.94 0.92 0.88 0.90 0.92 0.92 0.91 0.93 0.94 0.94 0.94 0.94 0.93 0.91 0.89 0.88 0.90 0.92 0.93 0.95 0.98 1.04 1.09 1.14 1.28 1.36 1.37 1.39 1.41 1.45 1.48 1.52 1.58 1.62 1.55 1.55 1.55 1.52 1.51 1.51 1.49 1.47 1.48 1.41 1.33 1.23 1.14 1.14 1.19 1.23 1.25 1.24 1.26 1.27 1.29 1.34 1.32 1.24 1.14 1.09 1.07 1.06 1.06 1.05
0.43 0.45 0.53 0.63 0.50 0.50 0.63 0.74 0.78 0.80 0.83 0.81 0.81 0.84 0.84 0.86 0.85 0.86 0.85 0.86 0.91 0.93 0.96 0.96 0.95 0.91 0.92 0.95 0.97 0.94 0.94 0.95 0.97 0.98 0.98 0.97 0.95 0.92 0.93 0.94 0.93 0.93 0.96 0.98 1.02 1.06 1.12 1.23 1.31 1.36 1.39 1.44 1.45 1.46 1.51 1.57 1.60 1.56 1.56 1.53 1.49 1.47 1.48 1.45 1.45 1.44 1.39 1.30 1.22 1.17 1.14 1.14 1.16 1.20 1.29 1.31 1.31 1.26 1.24 1.26 1.23 1.20 1.14 1.06 1.07 1.06 1.03
0.44 0.57 0.65 0.70 0.69 0.67 0.72 0.75 0.80 0.81 0.82 0.82 0.81 0.82 0.85 0.88 0.90 0.90 0.88 0.86 0.87 0.89 0.93 0.99 0.96 0.94 0.94 0.96 0.99 0.97 0.96 0.97 1.01 1.02 1.01 0.98 0.96 0.94 0.95 0.93 0.93 0.93 0.95 0.98 1.00 1.02 1.08 1.15 1.22 1.32 1.38 1.42 1.43 1.46 1.49 1.55 1.56 1.59 1.56 1.50 1.46 1.45 1.42 1.39 1.43 1.43 1.35 1.27 1.22 1.15 1.13 1.12 1.15 1.15 1.17 1.24 1.30 1.28 1.24 1.21 1.18 1.15 1.14 1.13 1.11 1.10 1.05
0.65 0.70 0.71 0.73 0.70 0.65 0.71 0.78 0.80 0.80 0.84 0.84 0.83 0.87 0.90 0.90 0.90 0.91 0.90 0.90 0.88 0.88 0.93 0.97 1.01 0.98 0.96 0.99 1.01 0.99 1.00 1.02 1.02 1.03 1.05 1.05 1.03 1.01 0.99 0.98 0.97 0.97 0.96 0.97 0.97 0.99 1.05 1.09 1.14 1.25 1.35 1.37 1.38 1.42 1.46 1.48 1.52 1.58 1.60 1.53 1.43 1.37 1.37 1.39 1.37 1.36 1.32 1.29 1.26 1.20 1.14 1.09 1.08 1.11 1.12 1.11 1.17 1.23 1.23 1.20 1.19 1.19 1.18 1.18 1.17 1.14 1.11
0.62 0.73 0.74 0.75 0.75 0.76 0.79 0.80 0.80 0.82 0.85 0.87 0.85 0.86 0.88 0.89 0.91 0.94 0.93 0.93 0.94 0.93 0.92 0.94 0.99 1.03 1.01 1.01 1.03 1.03 1.02 1.03 1.06 1.07 1.08 1.08 1.06 1.03 1.00 0.99 0.99 1.00 1.01 1.01 1.01 1.02 1.04 1.07 1.11 1.19 1.27 1.35 1.37 1.40 1.44 1.42 1.45 1.50 1.50 1.48 1.43 1.40 1.38 1.35 1.36 1.32 1.26 1.23 1.23 1.23 1.20 1.12 1.06 1.05 1.03 1.04 1.03 1.10 1.21 1.26 1.27 1.26 1.26 1.26 1.24 1.22 1.19
0.76 0.75 0.77 0.79 0.77 0.76 0.78 0.78 0.77 0.79 0.82 0.85 0.85 0.86 0.91 0.92 0.93 0.94 0.95 0.97 0.96 0.98 0.97 0.97 0.97 1.03 1.08 1.05 1.06 1.08 1.07 1.05 1.08 1.11 1.09 1.07 1.05 1.04 1.02 1.01 1.02 1.05 1.06 1.06 1.04 1.03 1.03 1.06 1.10 1.16 1.21 1.30 1.36 1.40 1.51 1.48 1.43 1.39 1.41 1.42 1.43 1.42 1.39 1.34 1.30 1.28 1.25 1.21 1.19 1.19 1.21 1.20 1.17 1.09 1.04 1.03 0.99 1.02 1.07 1.15 1.23 1.29 1.33 1.34 1.32 1.28 1.26
0.79 0.80 0.76 0.69 0.66 0.69 0.75 0.71 0.69 0.78 0.80 0.82 0.81 0.84 0.90 0.92 0.94 0.95 0.98 1.00 1.00 1.01 1.01 1.01 1.03 1.07 1.10 1.13 1.12 1.13 1.09 1.09 1.09 1.09 1.10 1.09 1.07 1.06 1.08 1.08 1.07 1.06 1.06 1.07 1.06 1.06 1.06 1.08 1.12 1.15 1.18 1.25 1.36 1.46 1.54 1.56 1.51 1.41 1.38 1.40 1.44 1.47 1.45 1.38 1.28 1.29 1.28 1.26 1.24 1.22 1.20 1.18 1.17 1.16 1.11 1.06 1.04 1.06 1.08 1.07 1.09 1.13 1.23 1.32 1.34 1.33 1.29
0.78 0.79 0.78 0.64 0.62 0.67 0.71 0.77 0.80 0.80 0.79 0.78 0.77 0.80 0.87 0.93 0.93 0.92 0.91 0.92 0.95 0.98 1.00 1.03 1.04 1.05 1.06 1.12 1.13 1.10 1.11 1.08 1.03 1.04 1.06 1.07 1.10 1.12 1.12 1.11 1.09 1.07 1.06 1.06 1.07 1.07 1.07 1.07 1.09 1.13 1.16 1.24 1.32 1.39 1.47 1.54 1.56 1.50 1.43 1.42 1.44 1.42 1.42 1.40 1.34 1.29 1.28 1.31 1.29 1.26 1.23 1.22 1.23 1.23 1.22 1.19 1.16 1.17 1.19 1.22 1.21 1.18 1.24 1.32 1.35 1.35 1.34
0.76 0.77 0.80 0.79 0.79 0.80 0.81 0.82 0.80 0.78 0.74 0.76 0.77 0.78 0.85 0.87 0.89 0.89 0.89 0.91 0.96 0.98 0.96 1.00 1.06 1.08 1.08 1.09 1.11 1.09 1.09 1.07 1.04 1.02 1.04 1.08 1.11 1.12 1.13 1.12 1.10 1.08 1.05 1.05 1.06 1.08 1.07 1.06 1.07 1.08 1.13 1.23 1.27 1.31 1.39 1.46 1.48 1.52 1.50 1.46 1.46 1.43 1.39 1.40 1.38 1.33 1.30 1.30 1.33 1.34 1.31 1.29 1.28 1.27 1.26 1.22 1.21 1.22 1.24 1.24 1.24 1.28 1.28 1.34 1.37 1.36 1.36
0.76 0.79 0.79 0.79 0.81 0.81 0.76 0.73 0.73 0.74 0.73 0.73 0.72 0.71 0.81 0.87 0.86 0.88 0.89 0.91 0.95 0.94 0.97 1.01 1.04 1.06 1.10 1.08 1.08 1.07 1.05 1.05 1.06 1.08 1.09 1.09 1.10 1.11 1.12 1.13 1.11 1.07 1.05 1.03 1.05 1.07 1.06 1.05 1.06 1.05 1.09 1.19 1.24 1.28 1.34 1.44 1.50 1.51 1.55 1.50 1.46 1.42 1.38 1.37 1.38 1.38 1.34 1.33 1.34 1.33 1.34 1.37 1.40 1.38 1.35 1.35 1.34 1.32 1.30 1.32 1.35 1.32 1.29 1.33 1.36 1.35 1.32
0.79 0.81 0.81 0.80 0.80 0.79 0.76 0.74 0.74 0.73 0.72 0.71 0.72 0.70 0.77 0.87 0.89 0.89 0.88 0.90 0.94 0.95 0.98 1.01 1.04 1.07 1.09 1.09 1.10 1.10 1.10 1.10 1.10 1.11 1.11 1.11 1.10 1.10 1.11 1.11 1.04 0.99 0.99 1.01 1.05 1.08 1.08 1.09 1.09 1.09 1.15 1.19 1.23 1.27 1.29 1.35 1.43 1.46 1.47 1.43 1.39 1.37 1.38 1.35 1.32 1.32 1.33 1.34 1.35 1.35 1.34 1.35 1.37 1.38 1.38 1.38 1.39 1.42 1.45 1.46 1.44 1.42 1.41 1.40 1.39 1.39 1.41
0.77 0.77 0.78 0.78 0.77 0.75 0.74 0.75 0.72 0.71 0.71 0.73 0.70 0.67 0.75 0.84 0.86 0.88 0.89 0.89 0.92 0.95 0.98 1.03 1.05 1.06 1.09 1.12 1.13 1.12 1.10 1.09 1.10 1.10 1.11 1.12 1.12 1.11 1.10 1.10 1.09 1.09 1.08 1.07 1.07 1.09 1.09 1.10 1.09 1.15 1.20 1.21 1.24 1.27 1.28 1.28 1.33 1.38 1.41 1.40 1.40 1.38 1.39 1.36 1.32 1.31 1.32 1.33 1.36 1.36 1.36 1.34 1.35 1.37 1.36 1.36 1.40 1.44 1.47 1.43 1.37 1.37 1.40 1.45 1.48 1.50 1.52
0.74 0.70 0.70 0.72 0.72 0.72 0.70 0.71 0.70 0.70 0.72 0.71 0.70 0.72 0.82 0.92 0.96 0.95 0.93 0.93 0.94 0.96 1.01 1.05 1.09 1.10 1.12 1.14 1.14 1.13 1.11 1.10 1.09 1.10 1.10 1.11 1.12 1.13 1.12 1.11 1.10 1.11 1.09 1.09 1.09 1.10 1.11 1.09 1.13 1.19 1.19 1.20 1.21 1.25 1.28 1.27 1.27 1.30 1.39 1.44 1.47 1.46 1.43 1.41 1.41 1.40 1.38 1.37 1.38 1.40 1.43 1.43 1.45 1.45 1.45 1.47 1.49 1.50 1.48 1.43 1.39 1.40 1.47 1.55 1.57 1.58 1.59
0.77 0.74 0.75 0.77 0.76 0.71 0.69 0.68 0.72 0.72 0.74 0.75 0.73 0.75 0.85 0.94 0.98 0.96 0.94 0.94 0.96 0.98 1.03 1.08 1.11 1.13 1.15 1.15 1.13 1.13 1.12 1.08 1.04 1.06 1.08 1.10 1.12 1.13 1.14 1.13 1.12 1.12 1.12 1.13 1.11 1.10 1.11 1.13 1.16 1.18 1.19 1.19 1.19 1.22 1.25 1.26 1.26 1.26 1.31 1.38 1.42 1.44 1.42 1.40 1.40 1.41 1.39 1.38 1.39 1.44 1.47 1.46 1.46 1.47 1.50 1.53 1.56 1.56 1.56 1.53 1.47 1.44 1.44 1.48 1.54 1.64 1.66
0.88 0.86 0.85 0.83 0.82 0.81 0.79 0.75 0.72 0.72 0.73 0.70 0.69 0.75 0.89 0.97 0.99 0.96 0.96 0.98 0.97 1.00 1.10 1.15 1.14 1.16 1.17 1.17 1.15 1.13 1.12 1.08 1.07 1.08 1.10 1.12 1.13 1.15 1.16 1.13 1.12 1.12 1.12 1.13 1.13 1.10 1.12 1.13 1.15 1.17 1.19 1.19 1.19 1.20 1.23 1.25 1.25 1.24 1.27 1.31 1.35 1.37 1.40 1.44 1.42 1.37 1.33 1.34 1.38 1.38 1.39 1.39 1.40 1.43 1.44 1.45 1.45 1.48 1.48 1.48 1.48 1.47 1.43 1.41 1.47 1.56 1.62
0.84 0.80 0.78 0.77 0.78 0.78 0.77 0.75 0.75 0.74 0.74 0.72 0.72 0.81 0.91 0.98 0.99 0.97 0.95 0.98 1.02 1.08 1.13 1.16 1.16 1.17 1.17 1.16 1.15 1.15 1.14 1.14 1.12 1.10 1.11 1.13 1.16 1.18 1.17 1.13 1.11 1.09 1.09 1.09 1.16 1.17 1.17 1.16 1.17 1.20 1.22 1.22 1.21 1.20 1.23 1.25 1.26 1.25 1.25 1.26 1.28 1.31 1.35 1.37 1.38 1.40 1.40 1.38 1.36 1.36 1.37 1.37 1.39 1.40 1.41 1.42 1.43 1.44 1.45 1.45 1.45 1.45 1.44 1.46 1.51 1.56 1.56
0.78 0.74 0.74 0.74 0.75 0.75 0.75 0.75 0.74 0.74 0.74 0.74 0.77 0.87 0.94 0.99 1.00 1.01 1.03 1.04 1.05 1.11 1.16 1.19 1.17 1.15 1.15 1.19 1.20 1.22 1.22 1.19 1.16 1.13 1.13 1.15 1.16 1.16 1.15 1.13 1.12 1.10 1.09 1.04 1.12 1.20 1.19 1.19 1.19 1.20 1.22 1.21 1.20 1.21 1.23 1.25 1.26 1.27 1.26 1.25 1.24 1.24 1.25 1.27 1.30 1.30 1.32 1.36 1.36 1.34 1.33 1.33 1.32 1.32 1.34 1.34 1.34 1.35 1.35 1.34 1.35 1.36 1.39 1.45 1.48 1.47 1.46
0.73 0.73 0.72 0.72 0.74 0.74 0.74 0.75 0.77 0.78 0.78 0.77 0.85 0.94 0.99 1.02 1.03 1.03 1.03 1.04 1.07 1.15 1.19 1.20 1.18 1.19 1.21 1.22 1.22 1.21 1.20 1.21 1.18 1.17 1.15 1.14 1.14 1.12 1.12 1.12 1.10 1.11 1.07 1.09 1.19 1.22 1.22 1.23 1.24 1.23 1.21 1.20 1.20 1.22 1.24 1.25 1.25 1.24 1.22 1.21 1.20 1.19 1.19 1.18 1.19 1.21 1.21 1.22 1.24 1.24 1.23 1.21 1.19 1.17 1.19 1.22 1.24 1.26 1.29 1.32 1.33 1.32 1.31 1.34 1.38 1.42 1.43
0.69 0.72 0.73 0.75 0.76 0.75 0.75 0.76 0.78 0.78 0.79 0.80 0.87 0.94 1.01 1.05 1.06 1.06 1.04 1.05 1.11 1.18 1.19 1.18 1.19 1.18 1.19 1.18 1.18 1.20 1.20 1.22 1.19 1.16 1.15 1.14 1.16 1.13 1.11 1.15 1.16 1.18 1.18 1.25 1.27 1.25 1.26 1.27 1.27 1.25 1.23 1.22 1.22 1.22 1.23 1.24 1.25 1.24 1.22 1.21 1.19 1.17 1.17 1.16 1.14 1.14 1.15 1.16 1.16 1.16 1.16 1.15 1.15 1.12 1.11 1.11 1.13 1.15 1.17 1.20 1.22 1.24 1.26 1.29 1.31 1.32 1.34
0.69 0.70 0.71 0.73 0.72 0.73 0.74 0.75 0.76 0.78 0.82 0.89 0.93 0.94 1.01 1.03 1.04 1.04 1.04 1.05 1.10 1.17 1.18 1.18 1.15 1.13 1.17 1.18 1.17 1.19 1.23 1.24 1.22 1.19 1.16 1.16 1.15 1.13 1.14 1.17 1.22 1.26 1.28 1.30 1.30 1.27 1.28 1.29 1.29 1.27 1.25 1.26 1.25 1.24 1.24 1.23 1.23 1.22 1.21 1.20 1.19 1.18 1.18 1.18 1.16 1.13 1.13 1.13 1.13 1.14 1.14 1.13 1.12 1.12 1.11 1.12 1.12 1.11 1.10 1.10 1.11 1.12 1.14 1.18 1.22 1.25 1.26
0.69 0.71 0.72 0.72 0.73 0.75 0.75 0.76 0.76 0.80 0.85 0.91 0.96 1.00 1.05 1.05 1.05 1.04 1.04 1.04 1.08 1.14 1.17 1.17 1.14 1.14 1.19 1.21 1.23 1.23 1.25 1.26 1.26 1.23 1.22 1.18 1.13 1.11 1.07 1.05 1.19 1.27 1.29 1.30 1.31 1.31 1.30 1.30 1.30 1.27 1.28 1.29 1.27 1.25 1.23 1.23 1.23 1.22 1.21 1.20 1.18 1.16 1.15 1.15 1.15 1.14 1.14 1.14 1.14 1.13 1.13 1.13 1.12 1.11 1.12 1.12 1.13 1.14 1.15 1.15 1.14 1.13 1.12 1.10 1.12 1.17 1.21
0.71 0.73 0.73 0.74 0.74 0.75 0.77 0.79 0.81 0.82 0.86 0.92 0.97 1.02 1.05 1.08 1.07 1.06 1.07 1.09 1.08 1.11 1.14 1.15 1.16 1.14 1.19 1.24 1.25 1.26 1.27 1.26 1.27 1.27 1.25 1.23 1.17 1.15 1.06 1.10 1.25 1.28 1.34 1.33 1.31 1.32 1.29 1.29 1.30 1.30 1.30 1.31 1.29 1.27 1.27 1.25 1.22 1.19 1.17 1.16 1.16 1.16 1.14 1.14 1.13 1.13 1.15 1.16 1.16 1.16 1.16 1.15 1.13 1.12 1.13 1.14 1.14 1.15 1.16 1.16 1.16 1.16 1.17 1.16 1.14 1.15 1.16
0.73 0.73 0.74 0.74 0.75 0.77 0.78 0.79 0.81 0.83 0.85 0.90 0.97 1.02 1.06 1.08 1.09 1.10 1.09 1.08 1.07 1.07 1.09 1.09 1.11 1.13 1.17 1.20 1.20 1.21 1.23 1.26 1.24 1.23 1.24 1.28 1.31 1.32 1.23 1.25 1.34 1.24 1.37 1.32 1.33 1.32 1.30 1.30 1.31 1.32 1.33 1.34 1.32 1.30 1.28 1.25 1.22 1.20 1.17 1.15 1.12 1.11 1.10 1.10 1.10 1.12 1.12 1.11 1.12 1.13 1.14 1.13 1.12 1.11 1.11 1.12 1.13 1.14 1.14 1.13 1.12 1.13 1.15 1.17 1.18 1.19 1.18
0.76 0.77 0.77 0.77 0.78 0.80 0.81 0.82 0.84 0.85 0.84 0.88 0.97 1.03 1.07 1.09 1.11 1.10 1.07 1.05 1.06 1.05 1.04 1.03 1.05 1.07 1.12 1.16 1.15 1.16 1.18 1.20 1.18 1.19 1.16 1.17 1.23 1.33 1.38 1.39 1.41 1.38 1.36 1.36 1.34 1.32 1.31 1.32 1.33 1.32 1.33 1.33 1.31 1.29 1.24 1.22 1.20 1.19 1.19 1.17 1.16 1.13 1.11 1.10 1.10 1.11 1.10 1.10 1.10 1.11 1.11 1.12 1.12 1.12 1.12 1.11 1.11 1.12 1.13 1.14 1.15 1.16 1.18 1.19 1.20 1.21 1.22
0.77 0.78 0.79 0.81 0.82 0.82 0.82 0.83 0.83 0.84 0.87 0.92 0.97 1.02 1.07 1.09 1.11 1.13 1.09 1.06 1.06 1.05 1.04 1.02 1.02 1.05 1.09 1.11 1.10 1.12 1.17 1.20 1.20 1.16 1.08 1.06 1.07 1.14 1.35 1.40 1.39 1.41 1.40 1.39 1.35 1.33 1.32 1.34 1.33 1.31 1.29 1.28 1.27 1.25 1.23 1.21 1.20 1.18 1.18 1.17 1.16 1.15 1.14 1.13 1.12 1.13 1.13 1.13 1.13 1.13 1.13 1.12 1.12 1.12 1.12 1.12 1.13 1.12 1.13 1.15 1.16 1.18 1.18 1.19 1.21 1.22 1.24
0.78 0.80 0.83 0.84 0.83 0.82 0.84 0.86 0.90 0.92 0.92 0.92 0.94 1.00 1.07 1.11 1.12 1.14 1.11 1.07 1.07 1.07 1.04 1.04 1.03 1.04 1.07 1.09 1.09 1.10 1.13 1.16 1.18 1.19 1.19 1.18 1.13 1.19 1.32 1.35 1.36 1.38 1.40 1.41 1.39 1.37 1.37 1.37 1.36 1.35 1.34 1.32 1.30 1.27 1.25 1.24 1.22 1.21 1.19 1.17 1.16 1.15 1.14 1.15 1.14 1.14 1.15 1.16 1.17 1.17 1.15 1.15 1.14 1.13 1.14 1.13 1.14 1.14 1.16 1.17 1.18 1.20 1.22 1.22 1.23 1.25 1.27
0.80 0.81 0.83 0.85 0.85 0.86 0.87 0.90 0.92 0.91 0.91 0.91 0.89 0.92 1.03 1.10 1.13 1.14 1.12 1.11 1.11 1.10 1.07 1.04 1.04 1.05 1.08 1.09 1.06 1.01 0.99 1.03 1.07 1.14 1.16 1.21 1.26 1.29 1.29 1.29 1.29 1.30 1.34 1.38 1.42 1.40 1.42 1.38 1.35 1.35 1.34 1.34 1.33 1.31 1.29 1.27 1.26 1.24 1.22 1.19 1.18 1.17 1.17 1.16 1.16 1.17 1.17 1.18 1.19 1.20 1.20 1.19 1.18 1.18 1.18 1.18 1.17 1.17 1.18 1.19 1.20 1.23 1.26 1.28 1.28 1.29 1.29
0.81 0.80 0.82 0.84 0.85 0.86 0.87 0.88 0.87 0.86 0.87 0.88 0.91 0.96 1.03 1.09 1.12 1.14 1.13 1.11 1.12 1.11 1.06 1.03 1.04 1.04 1.05 1.05 1.09 1.09 1.06 0.98 0.92 1.00 1.12 1.14 1.19 1.23 1.24 1.24 1.24 1.25 1.29 1.35 1.38 1.41 1.42 1.41 1.38 1.38 1.37 1.37 1.36 1.35 1.33 1.32 1.30 1.28 1.26 1.24 1.22 1.21 1.21 1.20 1.20 1.19 1.18 1.19 1.20 1.21 1.21 1.21 1.23 1.23 1.23 1.22 1.22 1.22 1.22 1.22 1.22 1.23 1.26 1.28 1.29 1.31 1.32
0.83 0.83 0.84 0.86 0.86 0.86 0.85 0.85 0.85 0.84 0.87 0.93 0.94 0.98 1.05 1.08 1.11 1.12 1.10 1.09 1.11 1.09 1.02 1.01 1.02 1.03 1.03 1.04 1.05 1.08 1.09 1.08 1.00 0.96 1.08 1.11 1.13 1.15 1.18 1.22 1.22 1.22 1.25 1.30 1.34 1.35 1.37 1.38 1.39 1.40 1.40 1.40 1.39 1.38 1.37 1.37 1.35 1.32 1.30 1.28 1.27 1.26 1.25 1.24 1.23 1.24 1.24 1.23 1.23 1.21 1.20 1.20 1.22 1.23 1.24 1.24 1.23 1.23 1.22 1.21 1.23 1.24 1.26 1.29 1.31 1.31 1.31
0.83 0.84 0.83 0.84 0.84 0.84 0.84 0.83 0.82 0.85 0.89 0.93 0.95 1.00 1.06 1.07 1.05 1.07 1.08 1.08 1.10 1.09 1.02 0.99 1.00 1.02 1.02 1.01 1.03 1.06 1.08 1.05 1.04 1.06 1.06 1.08 1.09 1.10 1.11 1.13 1.15 1.17 1.21 1.25 1.29 1.32 1.35 1.38 1.40 1.41 1.42 1.41 1.40 1.40 1.39 1.37 1.35 1.33 1.33 1.33 1.34 1.34 1.34 1.31 1.30 1.30 1.29 1.27 1.24 1.22 1.23 1.24 1.25 1.25 1.27 1.29 1.29 1.29 1.28 1.27 1.25 1.25 1.26 1.28 1.30 1.31 1.32
0.81 0.81 0.82 0.85 0.87 0.88 0.89 0.88 0.88 0.89 0.92 0.96 1.00 1.04 1.06 1.05 1.06 1.09 1.10 1.10 1.11 1.07 1.00 0.97 0.98 1.01 1.01 1.01 1.03 1.05 1.06 1.04 1.03 1.01 1.00 1.01 1.04 1.07 1.08 1.09 1.10 1.13 1.15 1.18 1.21 1.26 1.34 1.38 1.36 1.36 1.38 1.38 1.37 1.36 1.36 1.37 1.35 1.32 1.30 1.28 1.29 1.32 1.37 1.39 1.38 1.36 1.35 1.34 1.32 1.30 1.29 1.29 1.30 1.31 1.30 1.30 1.31 1.31 1.31 1.32 1.32 1.32 1.32 1.32 1.32 1.31 1.31
0.85 0.85 0.86 0.87 0.88 0.89 0.89 0.90 0.91 0.93 0.96 1.00 1.03 1.03 1.04 1.06 1.07 1.08 1.10 1.13 1.11 1.07 1.02 0.94 0.90 0.99 1.02 1.01 1.04 1.04 1.05 1.04 1.03 1.02 1.00 0.98 0.97 0.99 1.02 1.04 1.03 1.05 1.08 1.10 1.13 1.19 1.26 1.31 1.28 1.28 1.28 1.29 1.30 1.33 1.36 1.37 1.35 1.32 1.31 1.32 1.32 1.32 1.32 1.34 1.36 1.36 1.35 1.34 1.33 1.32 1.31 1.31 1.31 1.30 1.30 1.31 1.31 1.29 1.28 1.30 1.32 1.32 1.32 1.31 1.32 1.32 1.32
Wind_Speed
9 7 8 8 8 10 11 12 13 14 14 14 13 14 15 14 14 15 16 16 16 17 18 19 19 19 19 20 20 19 19 19 18 16 16 15 15 15 14 14 13 13 13 13 12 12 12 12 12 13 13 13 14 13 12 12 12 12 13 13 14 16 18 19 20 21 22 23 23 23 24 25 25 27 28 29 29 28 27 26 25 23 22 21 21 21 20
9 9 10 10 9 10 12 13 13 13 13 13 12 13 14 13 13 15 17 17 17 18 19 20 21 21 21 21 20 20 19 19 18 17 16 16 15 15 15 15 14 14 14 14 14 13 13 13 13 13 13 14 14 13 12 12 13 13 13 14 15 15 16 17 18 19 20 21 21 21 22 22 22 23 25 27 28 28 27 26 25 24 23 22 22 21 21
10 11 11 11 10 10 11 13 14 14 14 13 13 14 14 14 14 16 17 17 18 19 20 21 22 22 21 21 21 20 19 19 18 17 17 16 16 16 16 16 15 15 15 15 15 14 14 13 14 14 14 15 15 14 12 13 13 13 13 14 15 14 14 15 17 17 17 18 19 19 19 18 18 18 19 20 23 25 26 25 24 24 23 22 22 21 21
10 11 11 11 12 12 12 14 16 16 15 15 15 15 16 16 16 17 17 17 18 20 20 21 22 21 20 21 21 21 21 20 19 19 18 17 16 16 16 16 16 16 16 16 16 15 15 14 14 14 14 15 15 15 14 14 13 13 13 14 14 13 13 14 15 15 15 16 16 16 16 16 15 15 14 14 16 19 21 23 23 22 22 21 21 21 20
10 12 12 13 14 14 15 15 16 16 16 15 15 16 16 17 17 17 17 17 18 20 20 19 20 20 20 20 20 20 20 19 19 20 20 18 17 16 16 16 17 17 17 17 17 17 16 15 15 15 15 15 16 16 15 14 14 13 13 13 13 11 10 11 12 13 13 13 14 14 14 14 13 13 12 12 13 15 17 18 19 20 20 20 20 20 20
11 13 13 13 14 14 14 15 15 15 16 15 15 15 17 17 16 16 16 17 18 19 19 18 19 20 20 21 20 19 18 17 18 20 20 18 17 17 17 17 17 17 18 18 18 17 16 16 15 15 15 16 16 16 15 14 14 13 13 13 12 10 8 9 10 10 11 12 13 13 13 13 13 12 12 12 12 12 14 15 17 18 19 19 18 18 18
12 13 13 13 14 13 14 15 15 15 15 14 13 14 16 16 16 16 16 17 18 18 19 19 20 20 20 20 20 19 18 17 19 20 20 19 18 18 18 18 18 19 19 19 19 18 17 16 16 15 15 15 16 15 15 14 13 12 12 12 11 10 9 9 10 10 11 11 12 12 12 11 11 11 11 11 11 11 12 13 14 15 16 17 16 16 15
12 12 12 12 14 14 15 16 16 15 15 14 14 15 16 16 15 15 16 17 18 19 19 20 20 20 21 20 20 19 18 18 18 19 19 19 19 18 18 18 19 19 19 19 19 19 18 17 16 15 14 14 15 15 15 14 13 12 12 12 11 11 10 10 10 11 11 11 11 12 11 10 10 10 10 10 9 10 11 11 12 13 14 14 14 13 13
12 12 13 13 14 15 15 15 15 15 15 15 15 15 16 16 15 15 16 17 17 18 19 19 20 20 20 19 19 19 19 19 18 18 18 19 19 18 18 17 18 19 19 19 19 19 19 18 17 15 14 14 14 14 14 14 13 12 12 12 12 11 11 11 11 11 11 11 11 11 11 10 10 9 9 9 9 9 9 10 11 12 12 12 12 12 12
13 12 13 14 14 15 15 15 16 16 15 16 14 14 15 15 14 14 15 16 17 18 18 19 19 19 18 18 19 20 20 20 20 20 20 20 20 19 19 18 18 18 19 19 19 18 18 17 17 15 14 14 14 13 13 14 13 13 13 13 12 12 11 11 11 10 10 11 11 10 10 10 9 9 9 9 9 9 8 9 9 10 11 11 11 11 10
13 12 12 13 13 14 14 15 16 18 17 16 14 13 14 14 14 15 15 16 17 17 18 18 18 17 17 17 19 21 21 21 21 21 22 21 21 21 20 20 19 19 19 19 19 18 17 17 17 16 15 14 13 13 13 13 13 13 13 13 13 12 11 11 11 11 11 10 10 10 9 9 8 8 9 9 9 9 9 8 9 9 10 10 10 10 9
13 12 13 13 13 13 14 14 16 18 17 14 13 12 13 13 15 16 15 16 17 17 18 18 17 16 17 18 19 21 22 22 22 22 22 22 22 22 22 21 20 20 20 20 19 18 17 17 16 16 15 14 14 13 13 13 13 13 13 14 13 12 12 12 12 12 11 11 10 10 9 9 8 8 9 9 8 9 9 9 9 9 9 9 9 9 9
13 12 13 14 14 13 14 15 17 17 15 13 12 12 13 14 16 16 16 17 18 18 18 18 17 17 18 19 20 21 21 22 22 22 22 22 23 23 23 22 21 20 20 20 19 19 18 17 16 15 15 15 15 14 13 13 13 13 13 14 14 13 12 12 13 13 12 12 11 10 10 10 9 9 9 9 9 9 9 9 9 9 9 9 8 8 8
13 13 13 13 13 13 14 15 16 15 13 12 13 13 14 15 16 17 17 18 18 18 18 18 18 19 20 20 20 20 20 20 21 21 22 22 22 23 23 22 21 21 20 20 19 19 18 17 16 15 15 16 16 15 14 13 13 14 13 13 14 14 13 13 13 13 13 13 12 12 11 10 10 10 9 10 10 10 10 10 10 10 10 9 9 9 9
12 13 13 13 13 13 14 15 15 14 13 13 14 14 15 16 16 17 17 18 18 19 19 19 20 20 20 20 20 20 20 20 20 20 21 21 22 22 23 22 21 21 20 20 19 19 18 17 16 15 16 16 16 16 16 14 14 14 14 13 14 14 14 14 14 13 13 13 13 12 12 11 10 10 10 10 10 10 10 10 10 10 10 10 10 9 9
12 12 13 13 13 14 15 14 13 13 13 13 14 14 15 16 16 17 17 18 19 19 19 20 20 20 21 21 20 20 20 20 20 20 20 21 21 22 22 22 22 21 21 20 19 19 18 18 17 16 16 16 17 17 17 15 14 14 15 14 14 14 14 14 14 14 14 13 13 13 12 12 11 11 11 10 10 10 10 10 11 11 11 11 11 10 10
12 12 13 13 13 14 14 13 13 14 14 14 14 14 15 16 16 17 18 19 19 20 20 21 21 21 21 21 20 20 20 20 20 20 20 20 21 21 22 22 22 21 21 20 19 19 18 18 17 17 16 16 16 17 18 17 15 15 15 15 15 16 15 15 15 15 14 14 13 13 12 12 12 12 11 11 10 10 10 10 10 11 11 11 11 11 11
13 13 13 13 13 14 14 13 14 14 15 14 15 15 16 16 17 18 18 19 20 20 21 21 21 21 21 21 21 21 20 20 20 19 20 20 20 21 21 21 21 21 21 20 20 19 19 18 18 17 17 16 16 16 17 17 16 15 15 16 17 17 16 16 16 16 15 14 14 13 13 12 12 12 12 12 11 11 11 11 11 10 10 10 10 10 10
13 13 13 13 14 15 14 14 15 15 15 15 15 15 16 17 18 18 19 20 20 21 21 21 21 21 22 22 22 21 21 20 20 19 19 20 20 20 20 20 21 21 20 20 20 20 19 18 18 18 17 17 16 15 16 17 17 17 17 16 17 18 18 17 17 17 16 15 14 13 13 13 13 12 12 12 12 12 12 11 11 11 10 10 10 10 10
12 13 14 14 15 15 14 14 15 16 15 15 16 16 17 17 18 18 19 20 20 21 21 21 21 22 22 22 22 22 21 21 20 20 19 19 19 20 20 20 20 20 20 20 20 20 19 19 19 18 18 18 17 16 15 15 17 18 19 17 17 18 19 19 19 18 17 16 15 14 14 14 13 13 13 12 12 12 12 11 11 11 10 10 10 10 10
14 14 14 15 15 14 14 15 16 15 15 16 16 17 17 17 18 19 19 20 20 21 21 21 22 22 22 22 22 22 21 21 20 20 20 19 19 19 19 19 19 20 20 20 20 20 20 19 19 19 19 19 19 18 16 15 15 17 18 19 19 19 19 19 20 20 19 18 17 16 15 15 14 13 13 13 12 12 12 11 11 10 10 10 9 9 10
14 14 14 13 13 14 15 16 16 15 15 15 16 17 17 18 18 19 20 21 21 22 22 22 22 22 22 22 22 22 21 21 21 21 20 20 19 19 19 19 19 19 20 20 20 20 20 19 20 19 19 19 19 19 17 16 15 14 16 17 18 19 20 20 20 20 19 19 18 17 16 16 15 14 13 13 13 12 12 11 11 10 10 10 9 9 9
14 14 14 13 13 14 16 16 16 15 15 15 16 17 17 18 19 19 20 22 22 22 22 23 23 22 22 22 22 21 21 21 21 21 20 20 19 19 19 18 19 19 19 20 20 20 20 20 20 20 18 18 19 19 18 17 16 15 14 15 16 18 19 19 20 20 20 20 19 18 17 17 16 15 15 14 13 13 12 12 11 11 11 10 10 9 9
14 14 14 13 13 15 15 16 16 15 15 15 16 17 17 18 19 20 21 22 22 22 23 23 24 24 23 22 22 21 21 21 21 21 20 20 19 19 18 18 18 18 19 19 20 20 20 20 20 20 19 18 18 18 19 18 17 16 14 14 15 17 17 19 20 20 20 20 20 19 18 17 17 16 16 16 15 14 13 13 12 12 12 11 11 10 10
13 14 13 14 14 15 15 16 16 15 15 15 16 17 18 18 19 21 21 22 23 23 23 23 24 24 24 23 22 21 21 20 21 20 20 19 19 19 18 18 17 18 18 18 19 20 20 20 20 20 20 18 17 18 19 19 18 17 16 15 16 17 17 18 20 21 21 21 20 20 19 18 18 17 17 17 16 15 14 14 13 13 12 12 12 12 11
13 14 14 15 15 15 15 15 15 15 16 16 16 17 18 19 20 21 22 22 23 23 23 24 24 24 24 23 22 21 21 20 20 20 19 18 18 18 18 18 18 18 18 18 19 19 19 20 20 20 20 19 17 17 18 19 19 19 18 18 18 18 18 18 19 20 21 21 21 20 20 19 19 18 18 17 17 16 15 14 14 14 14 13 13 13 13
14 14 15 15 16 16 15 15 15 15 16 17 17 18 19 19 20 21 22 22 23 23 24 24 24 24 24 23 22 21 20 19 19 18 18 18 18 18 18 18 18 18 18 18 19 19 20 20 20 21 20 19 18 17 18 19 20 20 20 20 20 19 19 20 20 21 22 22 22 21 20 20 19 19 19 18 18 17 16 16 15 15 15 15 14 14 14
14 15 15 15 15 16 15 15 15 16 16 17 18 18 19 20 20 21 21 22 23 24 24 25 25 24 23 22 21 20 19 19 18 18 18 18 18 18 18 18 18 18 18 18 18 19 20 20 21 21 21 20 19 18 18 19 20 21 21 21 21 20 20 21 21 22 22 23 23 22 22 21 20 20 19 19 19 18 18 17 17 17 17 16 15 15 16
15 15 15 15 15 15 15 16 16 16 17 18 18 18 19 19 20 20 21 23 23 24 25 26 25 24 23 21 20 19 18 18 18 18 18 18 18 18 17 18 18 17 17 18 18 19 19 20 21 21 21 20 20 19 17 17 19 21 23 23 22 21 21 21 21 22 23 23 23 23 23 22 21 21 20 20 20 20 20 19 19 18 18 18 17 17 17
15 16 16 16 15 15 15 15 16 16 17 18 18 19 19 19 20 21 22 23 24 24 25 26 26 24 22 21 19 19 18 18 18 17 17 18 18 17 17 17 17 17 16 17 17 18 19 19 20 21 21 21 21 20 18 17 17 19 22 23 23 22 21 21 21 21 22 23 23 23 23 23 22 22 22 22 21 21 20 21 20 20 20 19 19 19 19
16 16 16 15 15 14 15 15 16 16 17 17 18 18 19 19 20 21 22 23 24 25 26 27 25 23 21 20 19 19 18 18 18 17 17 17 17 17 16 16 16 16 16 17 17 17 18 19 19 20 21 22 22 21 20 19 17 17 19 21 22 22 21 21 21 21 22 22 23 23 24 23 23 22 22 22 22 22 22 22 22 21 21 21 21 21 21
16 16 16 15 15 15 15 16 16 17 17 17 18 18 18 18 20 21 22 22 24 25 26 26 24 22 21 20 19 19 18 18 17 17 16 16 16 16 16 16 16 16 17 17 17 17 17 18 19 20 21 21 22 22 22 21 19 18 18 19 20 21 21 21 21 22 22 22 22 23 23 23 23 23 22 22 22 22 23 23 23 23 23 23 23 23 23
15 16 16 15 15 15 16 17 17 17 17 17 18 18 18 18 19 20 21 23 24 25 25 24 23 22 21 20 19 19 18 17 17 16 16 15 15 15 15 15 15 16 16 16 17 17 17 18 18 19 20 21 22 22 22 22 22 20 19 19 19 20 21 22 22 22 22 22 22 22 22 23 23 23 22 22 22 22 23 24 24 25 25 25 26 25 25
14 15 15 15 15 16 17 17 17 17 17 17 18 18 17 18 19 20 21 23 24 25 25 24 23 22 21 20 19 18 18 17 16 15 15 15 15 15 15 15 15 15 15 16 16 16 17 17 18 19 20 21 22 22 22 23 23 22 22 21 20 19 20 21 23 23 22 22 22 22 22 23 23 23 23 23 23 23 23 24 25 26 26 27 27 27 26
15 15 16 16 16 17 17 17 17 17 17 17 17 17 17 18 20 20 21 23 24 24 24 23 22 22 21 21 20 18 17 17 16 15 15 15 14 14 14 14 14 14 14 14 14 15 15 16 17 18 19 20 21 22 22 23 23 23 23 23 22 21 20 20 21 23 23 23 23 23 24 24 24 25 25 25 25 25 25 25 26 27 27 27 27 28 28
15 16 17 17 17 17 17 17 17 17 17 17 17 16 17 19 20 20 21 23 24 24 23 22 22 21 21 20 19 18 18 17 16 15 15 14 14 14 13 13 13 14 14 13 13 13 13 14 16 17 17 18 20 21 21 22 23 23 24 24 24 23 23 22 22 22 23 23 23 24 24 25 26 26 26 26 27 27 27 27 27 27 28 28 28 28 29
17 17 17 18 18 18 18 18 17 17 16 16 16 16 17 18 20 20 21 23 24 23 22 21 21 21 21 20 19 18 18 17 16 15 14 14 13 13 12 12 12 12 12 13 12 12 12 13 14 15 16 17 18 19 20 21 22 23 23 24 24 24 24 24 24 24 24 24 24 24 25 25 25 25 26 26 27 27 27 28 28 29 29 30 30 30 30
17 17 17 18 18 18 18 17 17 16 16 15 15 15 16 18 19 20 21 22 23 22 21 21 20 20 20 19 18 18 17 16 15 14 14 13 12 12 11 11 11 11 11 12 12 12 12 12 13 14 15 16 17 18 19 21 22 22 23 24 24 25 25 25 25 26 26 26 26 26 26 26 27 27 27 27 28 28 28 29 29 30 31 32 32 32 32
17 17 17 17 17 17 17 17 16 15 15 14 15 15 16 18 19 19 20 21 22 21 20 20 20 20 19 19 18 17 16 15 14 14 13 13 12 11 10 9 9 10 10 11 11 11 12 12 12 12 13 14 15 17 18 20 21 22 23 23 24 24 25 25 26 26 26 26 27 27 27 27 27 28 28 28 28 29 29 29 30 30 31 32 32 32 33
17 17 17 17 17 16 16 16 15 15 14 14 14 15 16 17 18 19 19 20 21 20 20 19 19 19 19 18 18 17 16 15 14 14 13 12 12 11 10 9 8 8 9 9 9 10 11 11 11 11 12 13 14 15 16 18 19 20 21 23 23 24 24 25 25 26 26 26 27 27 27 28 28 28 28 28 28 29 29 30 30 31 31 31 32 32 32
17 17 17 16 16 16 15 15 14 14 14 14 14 15 16 16 17 18 18 19 20 19 19 18 18 18 18 18 17 16 16 15 15 14 13 12 11 11 10 9 8 8 8 8 8 9 9 10 10 10 11 11 12 13 14 16 17 18 19 21 22 22 23 24 24 25 25 26 26 26 27 27 27 27 28 28 28 28 28 29 29 30 30 31 31 31 31
17 17 16 16 16 15 15 14 14 14 14 14 14 15 15 16 16 16 17 18 19 18 18 17 17 17 17 17 16 16 16 16 15 14 13 13 12 11 10 9 9 8 7 7 7 7 8 9 9 10 10 11 11 12 13 14 15 16 18 19 20 21 22 22 23 23 24 24 25 25 25 26 26 26 27 27 27 27 28 28 28 29 29 30 30 30 30
17 16 16 15 15 15 14 14 14 14 14 14 14 14 15 15 15 15 16 17 17 17 17 17 17 16 16 16 16 15 15 15 15 14 14 13 12 11 10 10 9 8 7 6 5 5 6 7 8 8 9 10 10 11 12 12 14 15 16 17 18 19 20 21 22 22 23 23 24 24 24 25 25 25 26 26 26 26 27 27 28 28 28 29 29 30 30
17 16 15 15 15 15 14 14 13 14 14 14 14 14 14 14 14 15 15 16 16 16 17 17 16 15 15 15 15 15 15 15 15 14 14 13 12 12 12 11 10 9 8 7 6 5 5 6 7 7 8 9 9 10 11 12 13 14 15 16 17 18 19 20 21 21 22 23 23 23 24 24 24 24 25 25 25 25 26 26 26 27 27 28 28 29 29
17 16 16 15 15 14 14 14 14 14 14 14 14 13 13 13 14 14 15 15 16 16 16 16 16 14 14 14 14 14 14 14 13 13 13 12 11 12 12 12 11 10 9 8 7 6 6 6 6 7 7 8 8 9 10 11 12 13 14 15 16 17 17 18 19 20 21 22 22 23 23 23 24 24 24 24 24 24 24 25 25 25 25 26 26 27 27
17 16 16 15 15 15 14 14 14 14 13 13 13 13 13 13 14 14 14 15 15 15 15 16 15 14 13 13 13 13 13 13 12 12 12 12 11 11 12 11 11 11 11 10 9 7 6 6 6 6 5 6 6 7 8 9 10 11 12 13 14 16 16 17 18 18 19 20 20 21 22 22 22 23 23 23 23 23 23 23 24 24 24 24 25 25 25
16 16 16 15 15 15 14 14 14 14 13 12 12 12 13 13 13 13 14 14 14 14 15 15 14 13 12 13 13 12 12 12 11 11 11 11 11 11 11 11 11 11 11 11 10 9 8 7 7 6 6 6 5 5 6 7 7 9 9 10 11 13 14 15 16 17 17 18 18 18 19 19 20 20 21 21 21 21 21 22 22 22 22 23 23 23 23
16 16 15 15 15 15 15 14 14 13 13 13 12 12 13 13 13 13 13 13 13 13 14 14 13 12 12 12 12 11 11 11 10 10 11 11 11 11 10 10 10 11 10 10 10 10 11 10 9 8 8 7 6 5 5 5 5 6 6 7 8 9 10 11 12 13 14 15 15 15 16 16 16 17 17 18 18 19 19 20 20 20 20 20 20 20 20
16 15 15 15 15 15 15 14 14 14 14 13 13 12 12 12 13 13 13 13 13 13 13 14 13 12 12 12 11 10 10 10 9 9 10 10 10 10 10 10 10 10 10 9 9 10 11 11 11 11 10 10 9 8 7 6 6 5 4 4 3 4 6 7 8 9 10 11 12 13 13 13 14 14 15 15 16 16 17 17 17 17 18 18 18 18 18
15 15 15 15 14 15 15 15 14 14 14 14 13 12 12 12 12 13 13 12 12 12 13 13 12 11 11 11 10 9 9 9 9 9 9 9 9 9 9 10 10 10 9 9 9 9 9 10 10 11 11 11 11 11 10 8 7 7 6 6 5 4 3 2 2 3 5 6 7 8 9 10 11 12 12 12 13 13 14 14 14 14 14 14 14 14 14
15 15 15 15 15 15 15 15 15 14 14 13 13 12 12 12 12 12 12 11 11 11 12 12 11 10 10 10 9 8 7 8 8 8 8 8 9 9 9 9 9 10 10 9 9 8 8 9 9 10 10 10 11 12 12 11 10 9 8 8 7 7 6 5 4 3 2 1 1 2 3 5 6 6 7 7 8 8 8 9 9 9 10 10 10 10 10
16 15 15 15 15 15 15 15 15 14 13 13 12 12 12 12 12 12 11 11 10 10 11 11 10 9 9 9 8 7 7 7 8 8 8 8 8 9 9 9 8 9 9 9 9 8 7 8 9 9 10 10 10 11 12 12 12 11 11 10 10 9 9 8 7 6 5 4 3 2 1 0 1 1 2 3 3 4 4 5 5 6 6 7 7 7 8
Wind_Direction
312 305 306 308 309 308 307 307 309 308 307 307 302 295 292 285 278 279 280 279 277 277 279 281 281 279 276 275 279 280 281 285 286 288 293 296 298 300 302 303 301 299 298 297 298 300 298 293 288 283 281 279 273 263 260 268 275 274 270 263 256 250 245 244 243 243 244 246 248 251 252 254 255 253 251 250 246 243 241 241 242 242 243 243 243 244 246
316 314 309 307 310 312 312 313 311 310 310 309 304 299 296 288 279 280 281 278 276 277 278 278 278 279 276 271 272 275 280 284 285 287 290 292 293 294 294 295 296 296 295 294 294 297 297 294 290 286 283 281 275 270 274 279 277 275 271 262 255 251 248 245 245 246 247 248 249 251 252 254 255 256 255 250 243 238 238 239 239 241 242 242 242 243 245
312 313 313 311 312 314 315 314 312 311 310 310 308 306 303 295 287 286 284 280 277 277 277 277 276 281 282 275 270 271 277 284 288 289 288 288 288 289 290 292 293 294 294 294 293 294 295 294 292 288 286 284 279 278 283 286 280 275 271 262 254 252 251 249 246 245 247 248 248 249 251 251 252 255 255 247 237 234 235 236 237 239 241 241 241 241 243
306 304 305 307 310 314 316 317 316 314 312 311 310 310 308 302 295 292 290 286 282 279 280 280 278 281 284 282 277 274 273 277 284 289 289 286 284 284 285 288 291 293 294 293 293 294 292 291 289 288 286 284 282 282 285 289 286 278 271 262 256 255 255 252 246 244 246 246 245 245 246 246 246 249 250 242 233 231 233 233 235 237 238 238 238 239 241
302 299 300 304 310 314 314 312 312 312 313 313 312 312 311 306 300 296 292 286 281 280 281 281 279 278 279 280 281 280 278 276 278 283 286 286 282 280 280 283 287 290 292 292 292 292 291 288 287 285 283 282 282 282 284 286 286 278 269 261 256 256 255 250 246 245 243 242 240 240 240 240 241 242 240 236 233 232 231 231 231 233 234 234 235 237 239
300 300 304 309 312 312 307 305 307 310 313 314 312 311 310 308 303 298 292 286 282 281 279 278 277 277 277 278 278 279 283 281 278 278 282 283 281 279 279 281 283 286 289 291 292 292 289 287 285 283 282 280 280 280 280 282 281 275 266 258 254 253 252 247 245 242 239 237 235 235 236 237 237 236 234 233 234 232 230 229 229 230 231 231 231 233 235
301 305 312 312 308 303 301 305 309 311 312 314 313 311 310 309 306 301 296 292 288 286 283 280 279 278 278 277 275 276 281 284 280 279 280 282 282 281 280 279 280 282 286 289 292 292 289 287 284 283 281 279 277 278 278 279 277 269 261 256 252 251 248 245 244 241 238 236 231 230 232 234 233 230 228 229 230 231 230 228 227 227 226 225 226 227 228
304 308 313 308 304 305 307 310 312 313 314 315 314 311 309 309 307 302 301 298 294 291 289 286 284 282 279 276 271 271 277 281 282 282 282 282 283 282 279 277 277 279 283 286 288 289 288 286 283 281 281 278 276 276 276 277 273 264 255 252 250 248 246 244 243 240 237 234 230 229 232 233 230 226 224 225 228 229 227 223 221 221 220 219 220 219 219
304 306 309 308 309 311 312 310 309 310 311 310 309 307 304 305 306 303 302 301 299 297 294 292 290 287 282 276 270 269 273 276 278 280 282 282 282 281 278 276 276 278 281 283 286 287 287 285 282 279 278 276 275 275 274 273 269 258 250 248 245 244 244 241 239 236 233 232 231 230 230 231 230 226 223 222 222 221 218 216 215 214 213 214 215 213 211
305 308 310 312 313 310 306 305 306 309 309 306 305 304 301 302 307 309 305 303 304 303 301 299 297 292 283 276 272 273 276 276 275 276 278 280 280 280 277 275 277 279 281 283 285 287 287 284 280 277 275 273 273 273 271 269 264 253 246 245 242 240 239 236 233 231 228 227 228 228 228 228 226 223 220 218 216 214 213 212 210 207 205 205 206 206 205
308 309 310 310 309 306 303 301 305 311 311 307 307 308 301 299 307 313 310 308 308 308 305 304 303 297 287 278 275 278 280 278 275 274 275 276 278 279 278 276 276 278 281 282 284 286 287 284 280 275 271 269 269 269 268 267 262 252 246 243 240 237 235 231 228 226 225 225 225 224 224 222 220 218 216 214 213 212 212 211 207 202 198 197 199 201 203
309 311 312 311 309 307 305 302 305 311 312 310 311 307 297 298 308 312 312 310 309 308 308 307 304 299 292 285 282 283 282 279 276 275 275 275 276 277 278 277 276 277 279 281 282 284 285 284 280 274 268 264 264 264 265 264 260 254 248 242 237 234 232 229 225 224 223 224 224 222 220 219 217 214 213 213 212 211 210 208 205 200 198 199 202 207 211
314 316 314 312 310 307 306 307 309 312 314 313 308 298 294 301 309 311 311 310 309 308 308 307 303 299 296 293 291 288 284 280 278 277 276 275 275 276 277 277 276 276 277 278 280 281 281 279 278 274 266 260 259 261 263 262 258 254 250 244 238 233 229 227 226 224 223 224 224 221 219 219 219 217 215 214 213 211 209 208 206 205 205 209 213 217 220
316 317 315 314 312 308 308 311 313 315 315 308 301 298 301 305 308 310 311 309 309 308 307 305 303 301 300 298 296 293 289 284 281 279 277 275 274 275 276 276 275 274 275 276 277 278 278 276 274 270 264 259 256 257 260 260 257 254 251 246 240 234 229 227 227 226 224 223 222 221 220 221 221 221 219 216 215 213 211 210 209 209 211 215 218 221 223
314 318 320 318 312 308 311 314 316 317 313 304 301 303 306 307 308 310 311 310 310 310 308 306 305 303 302 301 299 297 294 289 285 281 278 275 274 273 273 274 273 272 272 273 274 274 274 273 270 266 263 259 255 254 256 257 256 253 249 244 240 236 232 230 228 227 225 222 221 221 221 222 223 221 218 216 215 215 214 213 213 213 214 216 219 221 223
314 317 315 312 308 309 314 316 313 312 310 306 304 304 305 308 310 311 310 310 310 310 308 307 306 304 303 302 300 299 297 294 290 285 280 277 275 273 272 271 271 271 270 270 271 270 270 268 265 262 261 259 255 254 254 255 256 254 247 240 239 238 235 232 229 227 225 223 222 223 223 222 221 220 217 215 215 215 215 215 215 216 217 219 221 223 224
311 310 308 307 309 312 314 314 311 310 309 307 306 305 306 309 311 311 311 311 310 309 308 307 306 304 303 303 302 300 298 295 292 289 284 279 276 273 271 270 268 268 268 268 268 267 266 264 262 260 258 257 255 254 254 254 255 253 246 239 237 236 235 233 229 226 225 224 224 225 224 221 219 217 217 218 218 217 217 216 217 218 220 223 225 226 227
312 312 310 311 314 314 314 313 313 312 310 308 307 307 308 309 310 310 311 310 310 310 308 307 306 304 303 302 301 300 298 296 293 290 287 283 279 275 272 270 268 267 266 265 264 263 263 262 260 259 257 256 255 255 254 253 252 251 246 240 237 236 235 233 230 226 225 225 224 223 221 219 218 218 220 220 220 220 220 220 221 221 223 226 229 230 230
315 314 311 311 314 313 312 314 316 314 311 309 308 308 307 308 310 311 311 310 310 310 308 307 306 304 303 302 301 299 298 296 293 290 288 284 281 277 274 271 268 265 263 262 260 260 259 259 259 258 255 253 253 255 255 252 250 249 246 240 237 236 234 230 229 226 224 223 223 221 219 218 218 219 220 221 221 221 221 222 223 224 226 228 230 231 233
311 308 307 310 313 311 309 313 316 315 312 310 308 308 308 309 311 311 311 311 311 310 309 308 306 305 304 303 301 300 298 296 293 291 288 285 281 278 275 273 270 265 261 259 257 256 256 256 256 256 254 251 252 254 254 252 250 248 245 239 237 236 233 228 227 226 224 221 219 218 218 218 218 218 219 221 221 222 222 223 224 226 228 229 231 234 237
312 309 310 314 316 313 311 313 315 313 311 310 310 310 311 312 313 313 313 313 313 312 311 309 308 306 304 302 301 300 298 295 292 289 287 285 282 279 277 275 271 266 261 258 255 254 254 254 254 255 254 251 250 252 253 253 253 249 243 238 236 235 232 228 225 225 224 220 217 217 217 217 217 218 219 219 220 221 223 224 225 225 226 227 231 236 238
312 309 310 313 313 310 309 312 314 313 312 312 312 313 314 315 315 314 315 316 316 315 313 312 310 308 306 303 302 300 298 296 292 289 286 285 283 280 278 276 273 268 262 257 254 252 253 253 252 253 254 251 249 249 250 251 253 249 241 237 235 233 229 225 223 223 222 220 218 216 215 215 216 217 217 218 219 219 220 221 221 221 222 223 227 232 234
307 306 307 309 309 307 308 311 313 313 314 314 314 315 315 315 316 316 317 318 318 317 316 314 313 310 308 305 303 301 299 296 293 289 286 284 282 280 279 276 274 270 265 260 255 252 252 252 251 250 251 251 249 247 246 248 249 247 239 234 231 227 224 222 221 220 220 219 219 217 215 214 215 216 218 219 219 219 218 217 218 220 221 222 224 228 231
309 309 309 310 310 309 310 312 313 313 314 315 315 315 315 316 317 318 319 318 318 317 316 315 314 312 310 307 304 301 299 296 293 290 286 283 281 279 278 275 273 270 266 261 257 253 251 251 250 247 247 249 249 245 242 243 245 243 237 230 225 222 221 221 221 220 218 218 218 218 216 215 215 215 217 219 221 220 219 218 218 220 222 223 226 229 232
311 310 310 310 310 309 311 313 313 312 312 313 314 316 316 317 318 319 320 320 319 318 317 316 315 313 311 308 305 302 299 296 294 290 286 283 281 278 277 275 273 270 266 262 258 254 251 249 248 246 245 247 249 245 240 239 240 238 234 229 225 223 222 222 223 221 218 217 217 218 217 216 216 216 217 219 221 222 223 222 223 223 225 228 230 232 235
310 310 312 313 312 313 315 316 315 313 312 313 315 316 316 317 319 320 321 322 321 320 319 317 316 315 313 309 306 302 299 296 294 291 287 283 280 278 276 275 273 270 268 264 259 255 251 247 245 244 244 245 247 245 240 237 236 234 231 228 227 226 224 223 223 221 219 217 217 218 218 219 219 219 219 219 220 222 224 227 229 231 232 234 235 237 239
310 310 314 316 316 316 317 316 314 313 313 313 314 315 316 318 320 321 322 323 322 322 322 320 318 317 315 312 308 303 300 297 294 291 287 282 279 277 276 275 274 271 268 265 261 256 252 247 243 242 242 242 243 244 241 237 235 232 229 227 226 226 225 224 223 221 219 218 217 218 220 221 222 222 222 222 222 224 226 229 233 236 238 239 241 242 244
311 312 314 315 313 312 313 313 312 313 313 313 313 314 316 318 320 322 323 324 324 324 325 324 322 319 317 315 311 306 302 299 295 291 288 284 281 278 277 276 274 271 267 265 261 257 252 248 244 241 241 240 240 242 242 239 236 232 229 227 226 225 224 224 223 222 220 219 219 220 221 223 224 225 226 226 227 229 231 233 235 239 241 243 244 245 246
312 314 314 313 310 310 311 313 314 314 314 315 315 316 316 319 321 323 324 324 324 324 325 326 324 321 318 317 314 309 305 301 297 293 290 286 283 280 278 276 274 271 267 263 261 257 253 249 245 241 239 238 239 240 241 241 237 232 229 227 227 225 223 223 222 221 221 221 222 222 223 225 226 228 229 230 232 234 236 237 239 242 245 246 246 247 248
314 316 316 314 313 312 312 313 314 314 315 316 317 317 317 319 321 322 324 326 326 325 325 326 324 322 320 318 315 312 308 303 299 295 291 288 284 281 279 277 274 271 267 263 261 259 255 251 247 242 239 238 237 237 238 240 238 233 227 225 225 225 225 224 222 221 222 223 223 224 225 226 227 229 230 232 235 237 239 239 240 243 246 248 249 249 250
317 318 318 316 314 314 313 313 313 313 314 315 316 317 318 320 322 323 325 327 327 327 327 327 325 323 321 319 317 315 311 306 302 298 294 290 286 282 279 277 273 269 266 263 261 259 256 252 248 243 239 237 236 236 235 236 237 234 228 226 225 225 225 225 225 225 226 226 227 228 229 229 229 230 232 234 236 238 239 240 241 244 246 248 250 252 253
320 321 319 317 315 314 314 314 314 314 315 316 317 318 319 321 323 324 325 327 328 329 329 328 327 326 324 322 319 317 314 310 306 302 297 293 289 285 281 277 273 269 266 263 260 258 256 253 248 244 240 237 236 235 234 234 235 234 231 228 228 227 226 226 227 228 229 229 231 233 233 232 232 233 235 236 237 238 239 241 243 245 247 250 251 253 253
320 319 318 316 315 315 314 314 315 314 314 315 317 318 318 320 323 325 326 327 329 330 330 329 328 327 326 324 321 319 316 313 309 304 301 297 293 289 284 279 274 270 267 264 260 257 254 252 248 244 240 237 236 235 233 233 233 233 231 230 229 229 229 228 228 227 228 230 231 232 232 231 232 234 237 239 240 241 242 243 244 246 249 252 254 255 255
315 314 314 313 313 313 313 314 314 314 313 314 316 317 319 322 324 326 327 329 330 331 331 330 329 328 328 326 323 321 319 317 313 309 305 302 298 293 288 282 277 272 268 265 261 257 254 252 249 245 241 238 236 235 234 232 232 232 231 231 230 231 230 229 228 228 229 231 232 233 232 232 233 237 240 241 242 243 245 246 247 248 250 253 255 257 258
315 313 313 313 312 311 311 312 313 312 312 314 316 317 320 323 326 327 329 331 332 332 332 331 331 330 329 327 325 323 321 320 317 312 308 305 302 297 292 285 280 275 271 267 262 258 255 252 250 246 243 240 238 236 235 233 232 232 232 232 232 232 232 231 230 230 232 234 236 236 236 237 239 242 244 244 245 247 249 250 251 251 253 255 257 258 260
316 315 315 315 313 312 312 312 311 311 310 312 314 316 320 324 326 328 330 332 332 333 333 333 332 332 331 330 328 326 324 322 319 315 310 307 305 301 295 289 282 277 272 268 264 260 257 254 251 249 245 242 240 238 236 235 233 233 233 233 234 234 235 234 234 234 235 236 237 238 240 241 243 245 245 246 247 249 251 252 253 253 254 255 257 259 261
316 315 316 316 314 313 312 312 312 311 310 311 313 316 320 324 326 329 331 333 334 334 334 333 333 333 334 333 331 329 327 326 324 320 316 313 311 307 300 292 285 277 271 267 265 262 259 257 254 251 247 243 241 239 238 236 235 234 234 234 235 235 236 237 237 238 238 239 240 241 243 244 245 246 247 248 249 250 251 252 253 253 254 255 257 259 261
317 317 316 315 314 313 313 313 313 312 310 311 313 316 319 323 327 330 332 334 336 336 336 335 335 336 337 336 335 334 333 332 331 329 325 322 319 314 306 298 289 280 273 269 267 265 262 260 257 252 247 244 242 240 239 239 238 236 236 236 236 236 237 238 239 240 241 242 243 244 246 247 248 249 249 250 251 251 252 253 254 254 255 256 258 259 261
318 317 316 315 314 314 313 314 314 312 311 311 314 317 320 324 328 330 332 335 338 339 338 338 339 340 341 341 341 341 340 338 337 335 332 330 327 322 314 304 295 286 279 274 270 266 263 262 259 254 250 247 244 242 241 240 240 239 238 238 238 239 239 240 240 241 242 243 245 246 247 249 250 251 251 252 252 253 254 255 256 256 257 258 259 260 261
318 316 316 315 315 314 313 313 312 312 312 313 314 316 320 325 329 330 332 335 339 340 340 341 342 343 344 345 346 346 346 345 344 343 340 337 335 331 323 315 306 296 286 279 272 267 264 263 260 256 254 251 248 245 243 242 241 240 239 239 239 240 241 241 242 243 244 244 245 246 248 249 251 252 253 253 254 255 256 257 258 259 259 260 260 261 261
317 316 316 316 314 313 312 312 311 311 312 314 315 317 320 325 328 330 332 336 339 340 341 342 343 345 346 348 350 351 353 354 354 353 351 348 343 339 334 327 319 308 297 286 278 273 270 267 262 259 257 255 252 250 248 245 242 241 241 240 240 241 242 243 243 244 245 246 246 247 249 250 252 253 254 255 255 257 258 259 260 261 261 262 262 262 262
317 316 316 316 315 314 312 311 311 311 312 314 315 318 321 325 328 330 332 336 339 341 342 343 344 346 347 350 352 355 357 357 356 356 356 355 352 348 343 337 330 323 314 302 290 281 276 271 266 263 261 259 257 256 253 249 245 243 243 243 243 243 244 244 245 246 246 247 248 249 250 251 252 254 255 256 257 258 259 260 261 262 263 263 264 264 264
318 317 317 317 316 314 313 312 311 312 312 313 315 318 322 325 328 330 333 337 339 341 342 343 344 346 348 350 353 355 355 355 355 355 355 355 356 356 352 347 343 342 337 327 314 300 287 277 272 270 268 265 263 260 257 253 250 248 247 246 246 246 246 246 246 247 248 249 250 251 252 253 253 254 255 256 258 259 260 262 262 263 264 265 266 266 265
318 318 318 317 316 315 314 312 312 312 312 312 314 317 320 323 326 330 333 336 339 341 342 342 343 345 347 349 352 354 354 355 356 356 356 357 360 2 1 358 357 357 355 347 335 323 307 292 284 282 279 275 271 267 262 259 256 254 252 251 250 249 249 248 249 249 249 250 251 252 253 253 254 255 256 257 259 260 261 263 264 265 266 267 267 267 267
317 317 317 317 316 315 313 312 312 312 312 311 312 315 319 322 324 328 332 335 337 340 341 342 342 343 345 347 349 353 355 356 357 359 0 1 0 0 1 3 5 6 5 359 349 338 326 315 307 300 293 287 282 275 269 264 262 259 258 256 255 253 252 251 251 251 251 251 252 253 253 254 254 255 256 258 259 260 261 263 264 266 267 267 268 269 269
316 316 316 316 316 315 313 311 310 311 311 311 311 314 317 320 323 326 330 333 335 338 341 342 342 343 344 345 347 350 352 355 358 1 3 3 0 359 2 6 9 10 10 7 3 357 349 342 336 329 319 311 301 288 279 274 270 266 262 260 257 255 254 253 252 252 252 252 253 253 253 254 254 255 256 257 258 260 261 263 264 266 267 268 269 269 270
315 315 315 315 315 315 313 311 310 310 311 311 310 311 315 318 321 323 327 331 334 337 340 342 342 343 343 344 346 348 350 352 357 1 3 4 4 5 6 9 12 12 13 15 18 20 20 17 11 5 357 348 334 317 304 296 286 277 270 265 260 257 255 253 252 251 251 252 253 254 254 254 255 255 256 258 259 260 261 263 265 267 268 269 270 270 271
313 313 313 314 314 314 313 312 310 310 310 310 308 308 311 315 318 321 325 328 331 335 339 342 342 343 343 343 345 348 350 352 355 359 2 5 7 9 10 13 16 17 18 22 27 29 29 28 27 25 21 15 7 357 349 340 326 308 291 278 268 261 257 254 252 251 250 250 251 252 253 254 255 256 257 258 260 261 263 264 266 267 268 269 270 271 272
311 312 312 313 314 314 314 312 309 307 307 307 306 306 308 312 315 318 321 324 328 333 338 341 342 343 343 343 345 348 352 353 355 357 360 4 8 11 14 17 19 20 22 27 30 30 29 30 32 35 35 34 32 29 25 21 16 10 1 341 309 283 266 258 253 251 249 249 250 251 252 254 256 256 258 260 262 263 264 265 266 267 268 269 270 272 273
310 311 311 312 312 313 313 310 307 304 304 304 303 303 306 310 313 315 318 320 324 329 335 338 340 342 344 345 345 348 352 355 357 359 1 3 6 10 15 18 20 22 25 29 30 30 30 32 34 37 40 41 40 38 36 36 36 37 38 40 40 37 29 358 283 258 251 249 250 251 253 255 256 257 258 260 261 263 264 265 266 267 268 269 270 271 273
308 308 308 309 309 310 311 309 305 303 302 302 301 302 303 306 308 311 314 315 319 325 331 335 338 340 343 345 346 348 352 356 359 2 4 5 7 10 15 19 22 24 28 30 32 33 36 37 38 39 41 43 42 41 41 43 47 49 49 50 50 49 48 50 53 58 64 77 222 243 250 253 256 257 258 260 261 263 265 267 267 267 268 268 269 271 273
306 306 306 307 308 309 310 309 306 303 302 301 300 300 301 303 305 308 310 311 314 321 328 332 334 338 342 343 345 349 354 356 357 360 4 8 10 12 16 20 23 25 28 30 32 35 38 39 39 39 41 43 44 45 46 48 51 53 55 55 55 55 55 58 62 65 68 71 75 80 93 205 251 259 263 265 267 268 269 271 270 270 270 269 269 271 273